Location: Mentone
(34.5413°N, 85.5351°W)
Time: 00:27:28
(UTC-05:00)

ADEOS Rocket - Visible Passes

Search period start: 19 August 2017 00:00
Search period end: 29 August 2017 00:00
Orbit: 858 x 1307 km, 98.8° (Epoch: 17 August)

Date Brightness Start Highest point End Pass type
(mag) Time Alt. Az. Time Alt. Az. Time Alt. Az.
19 Aug 4.3 02:18:59 10° NNE 02:21:44 31° NNE 02:21:44 31° NNE visible
20 Aug 5.1 01:30:32 10° NE 01:32:01 17° NE 01:32:01 17° NE visible
20 Aug 4.4 03:16:15 10° NNW 03:18:58 23° NW 03:18:58 23° NW visible
21 Aug 4.3 02:26:32 10° N 02:29:13 30° N 02:29:13 30° N visible
22 Aug 5.0 01:37:52 10° NNE 01:39:29 19° NE 01:39:29 19° NE visible
22 Aug 4.5 03:24:03 10° NNW 03:26:26 20° NW 03:26:26 20° NW visible
23 Aug 4.4 02:34:07 10° N 02:36:41 29° N 02:36:41 29° N visible
24 Aug 5.0 01:45:16 10° NNE 01:46:58 20° NE 01:46:58 20° NE visible
24 Aug 4.7 03:31:54 10° NNW 03:33:55 17° NW 03:33:55 17° NW visible
25 Aug 4.4 02:41:43 10° N 02:44:11 27° N 02:44:11 27° N visible
26 Aug 4.9 01:52:41 10° NNE 01:54:27 21° NNE 01:54:27 21° NNE visible
26 Aug 4.8 03:39:50 10° NNW 03:41:23 14° NW 03:41:23 14° NW visible
27 Aug 4.5 02:49:21 10° N 02:51:40 25° NNW 02:51:40 25° NNW visible
28 Aug 4.9 02:00:08 10° NNE 02:01:56 22° NNE 02:01:56 22° NNE visible
28 Aug 5.0 03:47:53 10° NNW 03:48:53 12° NW 03:48:53 12° NW visible
